This demonstration page uses our WeatherBlox Daily Observations layout. Learn more.

Left ArrowRight Arrow

Hourly Observations for May 24, 2018

Temp ( °F °C ) Dew Point ( °F °C ) Humidity (%) Winds ( mph kmh ) Pressure ( in mb ) Visibility ( mi km ) Precip ( " mm )
12:53 am 00:53 Clear 74 23.3 65 18.3 74 74 SSE 13 20 29.94 1014 10 16 0.00 0.00
1:53 am 01:53 Clear 72 22.2 65 18.3 79 79 S 10 17 29.94 1014 10 16 0.00 0.00
2:53 am 02:53 Clear 70 21.1 65 18.3 84 84 S 6 9 29.96 1015 10 16 0.00 0.00
3:53 am 03:53 Clear 69 20.6 64 17.8 84 84 SSE 8 13 29.95 1014 10 16 0.00 0.00
4:53 am 04:53 Clear 67 19.4 64 17.8 91 91 S 9 15 29.97 1015 10 16 0.00 0.00
5:53 am 05:53 Partly Cloudy 67 19.4 62 16.7 84 84 S 9 15 29.96 1015 10 16 0.00 0.00
6:53 am 06:53 Sunny 66 18.9 63 17.2 90 90 S 6 9 29.97 1015 10 16 0.00 0.00
7:53 am 07:53 Sunny 69 20.6 64 17.8 84 84 ENE 3 6 29.99 1016 10 16 0.00 0.00
8:53 am 08:53 Sunny 70 21.1 62 16.7 76 76 ESE 8 13 29.99 1016 10 16 0.00 0.00
9:53 am 09:53 Sunny 73 22.8 62 16.7 69 69 SSE 12 19 29.97 1015 10 16 0.00 0.00
10:53 am 10:53 Sunny 76 24.4 61 16.1 60 60 SSE 12 19 29.96 1014 10 16 0.00 0.00
11:53 am 11:53 Sunny 81 27.2 61 16.1 51 51 SSE 14 22 29.94 1014 10 16 0.00 0.00
12:53 pm 12:53 Sunny 83 28.3 60 15.6 46 46 S 12 19 29.94 1014 10 16 0.00 0.00
1:53 pm 13:53 Sunny 83 28.3 60 15.6 46 46 S 17 28 29.92 1013 10 16 0.00 0.00
2:53 pm 14:53 Sunny 84 28.9 58 14.4 41 41 SSW 14 22 29.91 1013 10 16 0.00 0.00
3:53 pm 15:53 Sunny 83 28.3 58 14.4 43 43 S 15 24 29.91 1013 10 16 0.00 0.00
4:53 pm 16:53 Sunny 84 28.9 57 13.9 40 40 SSW 14 22 29.89 1012 10 16 0.00 0.00
5:53 pm 17:53 Sunny 85 29.4 56 13.3 37 37 S 10 17 29.88 1012 10 16 0.00 0.00
6:53 pm 18:53 Sunny 84 28.9 56 13.3 38 38 S 13 20 29.88 1012 10 16 0.00 0.00
7:53 pm 19:53 Sunny 82 27.8 56 13.3 41 41 SSE 12 19 29.86 1011 10 16 0.00 0.00
8:53 pm 20:53 Clear 79 26.1 57 13.9 47 47 S 8 13 29.87 1012 10 16 0.00 0.00
9:53 pm 21:53 Clear 76 24.4 56 13.3 50 50 SSE 8 13 29.88 1012 10 16 0.00 0.00
10:53 pm 22:53 Clear 74 23.3 61 16.1 64 64 S 8 13 29.89 1012 10 16 0.00 0.00
11:53 pm 23:53 Clear 73 22.8 62 16.7 69 69 S 8 13 29.88 1012 10 16 0.00 0.00

Powered by AerisWeather